Location: Newark
(10.9667°N, 4.8167°W)
Time: 20:47:14
(UTC+00:00)

LightSail 2 - Visible Passes

Search period start: 14 December 2019 00:00
Search period end: 24 December 2019 00:00
Orbit: 696 x 730 km, 24.0° (Epoch: 13 December)

Date Brightness Start Highest point End Pass type
(mag) Time Alt. Az. Time Alt. Az. Time Alt. Az.
14 Dec 6.0 19:10:17 10° W 19:15:15 47° SSW 19:19:52 12° SE visible
14 Dec 8.1 20:58:34 10° SW 20:58:55 11° SW 20:58:55 11° SW visible
15 Dec 7.5 19:59:01 10° WSW 20:02:34 19° SSW 20:05:26 12° SSE visible
16 Dec 7.1 19:00:05 10° W 19:04:26 27° SSW 19:08:45 10° SSE visible
17 Dec 8.1 05:43:49 10° S 05:45:17 11° SSE 05:46:46 10° SE visible
18 Dec 7.8 18:50:38 10° WSW 18:53:36 15° SSW 18:56:34 10° S visible
19 Dec 7.5 05:30:47 10° SSW 05:34:31 20° SSE 05:38:15 10° ESE visible
20 Dec 7.8 04:33:46 10° S 04:36:21 14° SSE 04:38:56 10° ESE visible
21 Dec 6.5 05:19:01 10° SW 05:23:39 36° SSE 05:28:17 10° E visible
22 Dec 7.0 04:24:03 22° S 04:25:30 25° SSE 04:29:37 10° E visible
22 Dec 5.1 06:05:50 10° WSW 06:10:54 88° NNW 06:16:01 10° ENE visible
23 Dec 8.2 03:30:27 11° ESE 03:30:27 11° ESE 03:30:37 10° ESE visible
23 Dec 5.4 05:09:29 21° SW 05:12:45 65° SSE 05:17:46 10° ENE visible
